Home > Weather > Brazzaville > Past weeks

Flag for Congo Past Weather in Brazzaville, Congo — Yesterday and Last 2 Weeks

Now
70 °F

Fog.


Feels Like: 70 °F
Forecast: 68 / 88 °F
Wind: 6 mph from West

Location: Brazzaville / Maya-Maya

Current Time: Jun 26, 2016 at 9:20:02 AM

Latest Report: Jun 26, 2016 at 9:00 AM


Visibility: 2 mi

Pressure: 30.04 "Hg

Humidity: 88%

Dew Point: 66 °F

Location of BrazzavilleLocation

Past Weather in Brazzaville — Graph

°F

Brazzaville Temperature Yesterday

Maximum temperature yesterday: 86 °F (at 3:00 PM)
Minimum temperature yesterday: 66 °F (at 3:00 AM)
Average temperature yesterday: 74 °F

High & Low Weather Summary for the Past Weeks

 TemperatureHumidityPressure
High88 °F (Jun 18, 3:00 PM)100% (Jun 17, 3:00 AM)30.12 "Hg (Jun 17, 3:00 AM)
Low66 °F (Jun 15, 5:00 AM)40% (Jun 24, 4:00 PM)29.83 "Hg (Jun 24, 3:00 PM)
Average75 °F79%30.00 "Hg
* Reported Jun 11 8:00 AM — Jun 26 8:00 AM, Brazzaville, Weather by CustomWeather, © 2016

Note: Actual official high and low records may vary slightly from our data, if they occured in-between our weather recording intervals... More about our weather records

Advertising

Brazzaville Weather History for the Previous 24 Hours

Scroll right to see more
 ConditionsComfort  
Time TempWeatherWind HumidityBarometerVisibility
8:00 AM
Sun, Jun 26
70 °FFog.No wind88%30.04 "Hg1 mi
7:00 AM66 °FFog.No wind100%30.01 "Hg1 mi
6:00 AM66 °FFog.3 mph94%30.01 "Hg2 mi
5:59 AM66 °FFog.3 mph94%30.01 "Hg2 mi
5:00 AM68 °FClear.5 mph94%29.98 "Hg4 mi
4:00 AM68 °FClear.No wind94%29.98 "Hg4 mi
3:00 AM68 °FClear.No wind94%29.98 "Hg4 mi
2:00 AM68 °FClear.No wind94%29.98 "Hg4 mi
1:00 AM70 °FClear.No wind88%29.98 "Hg4 mi
12:00 AM70 °FClear.No wind88%30.01 "Hg4 mi
11:00 PM
Sat, Jun 25
72 °FClear.No wind83%29.98 "Hg4 mi
10:00 PM72 °FClear.6 mph88%29.98 "Hg4 mi
9:00 PM73 °FFog.No wind78%29.95 "Hg3 mi
8:00 PM77 °FHaze.No wind69%29.92 "Hg2 mi
7:00 PM79 °FHaze.No wind65%29.89 "Hg2 mi
6:00 PM81 °FHaze.No wind58%29.89 "Hg3 mi
5:00 PM84 °FHaze.3 mph51%29.89 "Hg3 mi
4:00 PM86 °FHaze.2 mph49%29.86 "Hg2 mi
3:00 PM86 °FHaze.No wind46%29.89 "Hg2 mi
2:00 PM84 °FHaze.2 mph48%29.92 "Hg2 mi
1:00 PM81 °FHaze.3 mph58%29.95 "Hg2 mi
12:00 PM79 °FHaze.3 mph65%29.98 "Hg2 mi
11:00 AM73 °FFog.5 mph78%30.01 "Hg2 mi
10:00 AM70 °FFog.6 mph88%30.04 "Hg2 mi
9:00 AM70 °FFog.6 mph88%30.04 "Hg1 mi
Weather by CustomWeather, © 2016

See weather overviewHow to use our weather pages